When you browse on this site, cookies collect data to enhance your experience and personalize the content and advertising you see.
Visit our Privacy Policy to learn more. By continuing to use the site, you agree to this use of cookies and data.
  • In Hungary
  • List of Countries
  • For 7 days
  • Water Temperature
  • Weather Map
  • News
  • Weather Widgets
  • user-avatar
    Login

    Hourly Weather Todi

    Today, 13 December, Friday

    Time Temperature Precipitation Wind Pressure Humidity
    00:00 +4°C° 0 mm 1 mps 724 mmHg 93%
    01:00 +3°C° 0 mm 2 mps 724 mmHg 92%
    02:00 +3°C° 0 mm 2 mps 723 mmHg 90%
    03:00 +4°C° 0 mm 2 mps 723 mmHg 88%
    04:00 +4°C° 0 mm 2 mps 722 mmHg 87%
    05:00 +3°C° 0 mm 3 mps 721 mmHg 85%
    06:00 +3°C° 0 mm 3 mps 721 mmHg 83%
    07:00 +3°C° 0 mm 3 mps 720 mmHg 81%
    08:00 +4°C° 1.5 mm 4 mps 719 mmHg 85%
    09:00 +5°C° 1.5 mm 4 mps 718 mmHg 90%
    10:00 +5°C° 1.5 mm 4 mps 717 mmHg 94%
    11:00 +6°C° 1.1 mm 4 mps 716 mmHg 94%
    12:00 +7°C° 1.1 mm 4 mps 715 mmHg 94%
    13:00 +8°C° 1.1 mm 4 mps 713 mmHg 94%
    14:00 +8°C° 1.5 mm 5 mps 712 mmHg 91%
    15:00 +9°C° 1.5 mm 6 mps 711 mmHg 87%
    16:00 +9°C° 1.5 mm 7 mps 710 mmHg 83%
    17:00 +8°C° 0.3 mm 5 mps 710 mmHg 84%
    18:00 +7°C° 0.3 mm 4 mps 710 mmHg 85%
    19:00 +5°C° 0.3 mm 3 mps 711 mmHg 86%
    20:00 +5°C° 0.1 mm 3 mps 711 mmHg 87%
    21:00 +5°C° 0.1 mm 3 mps 712 mmHg 87%
    22:00 +4°C° 0.1 mm 3 mps 712 mmHg 87%
    23:00 +4°C° 0.1 mm 3 mps 713 mmHg 88%

    Tomorrow, 14 December, Saturday

    Time Temperature Precipitation Wind Pressure Humidity
    00:00 +4°C° 0.1 mm 2 mps 715 mmHg 89%
    01:00 +4°C° 0.1 mm 2 mps 716 mmHg 89%
    02:00 +4°C° 0.1 mm 2 mps 717 mmHg 88%
    03:00 +3°C° 0.1 mm 3 mps 718 mmHg 86%
    04:00 +3°C° 0.1 mm 3 mps 719 mmHg 85%
    05:00 +3°C° 0 mm 2 mps 720 mmHg 83%
    06:00 +3°C° 0 mm 2 mps 722 mmHg 82%
    07:00 +4°C° 0 mm 1 mps 723 mmHg 81%
    08:00 +5°C° 0 mm 1 mps 724 mmHg 77%
    09:00 +6°C° 0 mm 1 mps 725 mmHg 73%
    10:00 +8°C° 0 mm 1 mps 726 mmHg 69%
    11:00 +9°C° 0 mm 1 mps 726 mmHg 64%
    12:00 +9°C° 0 mm 0 mps 727 mmHg 59%
    13:00 +11°C° 0 mm 0 mps 727 mmHg 54%
    14:00 +10°C° 0 mm 0 mps 728 mmHg 56%
    15:00 +9°C° 0 mm 0 mps 728 mmHg 58%
    16:00 +10°C° 0 mm 1 mps 728 mmHg 61%
    17:00 +8°C° 0 mm 0 mps 729 mmHg 63%
    18:00 +8°C° 0 mm 0 mps 730 mmHg 65%
    19:00 +7°C° 0 mm 0 mps 730 mmHg 68%
    20:00 +7°C° 0 mm 0 mps 731 mmHg 71%
    21:00 +8°C° 0 mm 1 mps 731 mmHg 74%
    22:00 +8°C° 0 mm 1 mps 732 mmHg 76%
    23:00 +8°C° 0 mm 1 mps 732 mmHg 78%

    Day after tomorrow, 15 December, Sunday

    Time Temperature Precipitation Wind Pressure Humidity
    00:00 +8°C° 0 mm 1 mps 732 mmHg 79%
    01:00 +8°C° 0 mm 1 mps 733 mmHg 80%
    02:00 +7°C° 0 mm 1 mps 733 mmHg 80%
    03:00 +7°C° 0 mm 1 mps 733 mmHg 81%
    04:00 +7°C° 0 mm 1 mps 733 mmHg 82%
    05:00 +7°C° 0 mm 1 mps 733 mmHg 80%
    06:00 +7°C° 0 mm 1 mps 733 mmHg 79%
    07:00 +7°C° 0 mm 1 mps 733 mmHg 78%
    08:00 +8°C° 0 mm 1 mps 734 mmHg 76%
    09:00 +9°C° 0 mm 1 mps 734 mmHg 74%
    10:00 +10°C° 0 mm 1 mps 735 mmHg 72%
    11:00 +9°C° 0 mm 2 mps 735 mmHg 75%
    12:00 +10°C° 0 mm 2 mps 735 mmHg 79%
    13:00 +10°C° 0 mm 2 mps 735 mmHg 82%
    14:00 +10°C° 0 mm 2 mps 736 mmHg 84%
    15:00 +10°C° 0 mm 2 mps 736 mmHg 86%
    16:00 +12°C° 0 mm 1 mps 736 mmHg 89%
    17:00 +11°C° 0 mm 1 mps 736 mmHg 89%
    18:00 +11°C° 0 mm 1 mps 736 mmHg 89%
    19:00 +11°C° 0 mm 1 mps 737 mmHg 89%
    20:00 +11°C° 0 mm 1 mps 737 mmHg 89%
    21:00 +10°C° 0 mm 1 mps 737 mmHg 89%
    22:00 +10°C° 0 mm 1 mps 737 mmHg 88%
    23:00 +10°C° 0 mm 1 mps 737 mmHg 88%

    16 December, Monday

    Time Temperature Precipitation Wind Pressure Humidity
    00:00 +10°C° 0 mm 1 mps 737 mmHg 88%
    01:00 +10°C° 0 mm 1 mps 738 mmHg 87%
    02:00 +10°C° 0 mm 1 mps 737 mmHg 87%
    03:00 +9°C° 0 mm 1 mps 737 mmHg 87%
    04:00 +9°C° 0 mm 1 mps 737 mmHg 87%
    05:00 +9°C° 0 mm 1 mps 737 mmHg 87%
    06:00 +9°C° 0 mm 1 mps 737 mmHg 87%
    07:00 +9°C° 0 mm 1 mps 737 mmHg 86%
    08:00 +10°C° 0 mm 1 mps 738 mmHg 82%
    09:00 +11°C° 0 mm 1 mps 738 mmHg 78%
    10:00 +12°C° 0 mm 1 mps 738 mmHg 74%
    11:00 +13°C° 0 mm 1 mps 738 mmHg 72%
    12:00 +14°C° 0 mm 1 mps 738 mmHg 70%
    13:00 +15°C° 0 mm 1 mps 738 mmHg 69%
    14:00 +14°C° 0 mm 1 mps 738 mmHg 73%
    15:00 +14°C° 0 mm 1 mps 737 mmHg 77%
    16:00 +12°C° 0 mm 0 mps 737 mmHg 81%
    17:00 +12°C° 0 mm 1 mps 737 mmHg 82%
    18:00 +11°C° 0 mm 1 mps 737 mmHg 84%
    19:00 +11°C° 0 mm 1 mps 737 mmHg 86%
    20:00 +10°C° 0 mm 1 mps 737 mmHg 84%
    21:00 +10°C° 0 mm 1 mps 737 mmHg 83%
    22:00 +10°C° 0 mm 1 mps 737 mmHg 82%
    23:00 +10°C° 0 mm 1 mps 736 mmHg 81%

    17 December, Tuesday

    Time Temperature Precipitation Wind Pressure Humidity
    00:00 +10°C° 0 mm 1 mps 736 mmHg 79%
    01:00 +10°C° 0 mm 1 mps 736 mmHg 78%
    02:00 +10°C° 0 mm 1 mps 736 mmHg 77%
    03:00 +10°C° 0 mm 1 mps 736 mmHg 76%
    04:00 +10°C° 0 mm 1 mps 735 mmHg 75%
    05:00 +10°C° 0 mm 1 mps 735 mmHg 74%
    06:00 +9°C° 0 mm 1 mps 735 mmHg 74%
    07:00 +9°C° 0 mm 1 mps 735 mmHg 73%
    08:00 +10°C° 0 mm 1 mps 736 mmHg 72%
    09:00 +11°C° 0 mm 1 mps 736 mmHg 70%
    10:00 +12°C° 0 mm 1 mps 736 mmHg 68%
    11:00 +13°C° 0 mm 1 mps 736 mmHg 67%
    12:00 +14°C° 0 mm 1 mps 736 mmHg 65%
    13:00 +15°C° 0 mm 1 mps 735 mmHg 64%
    14:00 +14°C° 0 mm 1 mps 735 mmHg 68%
    15:00 +13°C° 0 mm 1 mps 735 mmHg 72%
    16:00 +13°C° 0 mm 1 mps 735 mmHg 76%
    17:00 +12°C° 0 mm 1 mps 735 mmHg 77%
    18:00 +11°C° 0 mm 1 mps 735 mmHg 79%
    19:00 +10°C° 0 mm 1 mps 735 mmHg 80%
    20:00 +10°C° 0 mm 1 mps 735 mmHg 79%
    21:00 +10°C° 0 mm 1 mps 735 mmHg 79%
    22:00 +9°C° 0 mm 0 mps 735 mmHg 78%
    23:00 +9°C° 0 mm 0 mps 735 mmHg 77%

    18 December, Wednesday

    Time Temperature Precipitation Wind Pressure Humidity
    00:00 +9°C° 0 mm 0 mps 735 mmHg 76%
    01:00 +8°C° 0 mm 0 mps 735 mmHg 76%
    02:00 +8°C° 0 mm 0 mps 735 mmHg 76%
    03:00 +8°C° 0 mm 0 mps 735 mmHg 75%
    04:00 +8°C° 0 mm 0 mps 734 mmHg 75%
    05:00 +8°C° 0 mm 0 mps 734 mmHg 74%
    06:00 +8°C° 0 mm 0 mps 734 mmHg 73%
    07:00 +9°C° 0 mm 1 mps 734 mmHg 72%
    08:00 +10°C° 0 mm 1 mps 734 mmHg 69%
    09:00 +11°C° 0 mm 1 mps 734 mmHg 66%
    10:00 +12°C° 0 mm 1 mps 734 mmHg 63%
    11:00 +13°C° 0 mm 1 mps 734 mmHg 60%
    12:00 +14°C° 0 mm 1 mps 733 mmHg 57%
    13:00 +15°C° 0 mm 1 mps 733 mmHg 54%
    14:00 +13°C° 0 mm 0 mps 732 mmHg 58%
    15:00 +12°C° 0 mm 0 mps 732 mmHg 63%
    16:00 +12°C° 0 mm 0 mps 732 mmHg 67%
    17:00 +12°C° 0 mm 1 mps 731 mmHg 68%
    18:00 +12°C° 0 mm 1 mps 731 mmHg 69%
    19:00 +11°C° 0 mm 1 mps 730 mmHg 70%
    20:00 +11°C° 1.4 mm 1 mps 730 mmHg 76%
    21:00 +11°C° 1.4 mm 1 mps 730 mmHg 81%
    22:00 +10°C° 1.4 mm 1 mps 729 mmHg 87%
    23:00 +10°C° 3.4 mm 1 mps 729 mmHg 90%
    Show more